Greenville, TX

6:59 AM CST on November 21, 2017 (GMT -0600)
Majors

Weather History for KGVT - January, 2014

Change the Weather History Date:

Thursday, January 9, 2014

  Actual Average Record
Temperature  
Mean Temperature 40 °F -  
Max Temperature 44 °F 55 °F 75 °F (2009)
Min Temperature 35 °F 38 °F 26 °F (2015)
Degree Days  
Heating Degree Days 26    
Moisture  
Dew Point 38 °F    
Average Humidity 93    
Maximum Humidity 100    
Minimum Humidity 81    
Precipitation  
Precipitation 0.06 in - - ()
Sea Level Pressure  
Sea Level Pressure 30.15 in    
Wind  
Wind Speed 5 mph (ENE)    
Max Wind Speed 7 mph    
Max Gust Speed -    
Visibility 2 miles    
Events Fog , Rain    
Averages and records for this station are not official NWS values.
T = Trace of Precipitation, MM = Missing Value Source: NWS Daily Summary

Daily Weather History Graph

Daily Weather History Graph

Search for Another Location

Airport or City:

Trip Planner

Search our weather history database for the weather conditions in past years. The results will help you decide how hot, cold, wet, or windy it might be!

Date:

Astronomy

Jan. 09, 2014 Rise Set
Actual Time 7:28 AM CST 5:35 PM CST
Civil Twilight 7:01 AM CST 6:02 PM CST
Nautical Twilight 6:30 AM CST 6:32 PM CST
Astronomical Twilight 6:00 AM CST 7:02 PM CST
Moon 12:56 PM CST (1/9) 1:44 AM CST (1/9)
Length of Visible Light 11h 00m
Length of Day
10h 06m
Waxing Gibbous, 66% of the Moon is Illuminated
Jan 9
Waxing Gibbous
Jan 15
Full
Jan 23
Last Quarter
Jan 30
New
Feb 6
First Quarter

Hourly Weather History & Observations

Time (CST) Temp. Windchill Dew Point Humidity Pressure Visibility Wind Dir Wind Speed Gust Speed Precip Events Conditions
12:15 AM 39.2 °F 35.0 °F 33.8 °F 81% 30.20 in 7.0 mi ENE 5.8 mph - N/A   Light Drizzle
12:35 AM 39.2 °F 35.0 °F 33.8 °F 81% 30.19 in 10.0 mi ENE 5.8 mph - N/A   Overcast
12:55 AM 37.4 °F 32.1 °F 33.8 °F 87% 30.19 in 10.0 mi NE 6.9 mph - N/A   Overcast
1:15 AM 37.4 °F 32.8 °F 33.8 °F 87% 30.19 in 10.0 mi ENE 5.8 mph - 0.01 in   Drizzle
1:35 AM 37.4 °F 32.8 °F 33.8 °F 87% 30.19 in 10.0 mi ENE 5.8 mph - 0.01 in   Light Drizzle
1:55 AM 37.4 °F 32.8 °F 33.8 °F 87% 30.19 in 4.0 mi ENE 5.8 mph - 0.01 in   Overcast
2:15 AM 37.4 °F 32.1 °F 35.6 °F 93% 30.19 in 4.0 mi ENE 6.9 mph - N/A   Light Drizzle
2:35 AM 35.6 °F 31.7 °F 35.6 °F 100% 30.19 in 4.0 mi NE 4.6 mph - N/A   Overcast
2:55 AM 35.6 °F 31.7 °F 33.8 °F 93% 30.20 in 3.0 mi NNE 4.6 mph - 0.02 in Rain Rain
3:15 AM 35.6 °F 32.8 °F 33.8 °F 93% 30.20 in 3.0 mi NE 3.5 mph - 0.01 in   Overcast
3:35 AM 35.6 °F 31.7 °F 33.8 °F 93% 30.20 in 3.0 mi NE 4.6 mph - 0.02 in Rain Rain
3:55 AM 35.6 °F 29.9 °F 33.8 °F 93% 30.19 in 4.0 mi ENE 6.9 mph - 0.02 in   Overcast
4:15 AM 35.6 °F 31.7 °F 33.8 °F 93% 30.19 in 3.0 mi ENE 4.6 mph - N/A   Overcast
4:35 AM 35.6 °F 30.7 °F 33.8 °F 93% 30.19 in 5.0 mi East 5.8 mph - N/A   Overcast
4:55 AM 35.6 °F 30.7 °F 33.8 °F 93% 30.18 in 5.0 mi ENE 5.8 mph - N/A   Overcast
5:15 AM 35.6 °F 30.7 °F 33.8 °F 93% 30.18 in 5.0 mi ENE 5.8 mph - N/A   Overcast
5:35 AM 35.6 °F 29.9 °F 33.8 °F 93% 30.19 in 2.5 mi ENE 6.9 mph - N/A   Overcast
5:55 AM 35.6 °F 30.7 °F 33.8 °F 93% 30.19 in 2.5 mi East 5.8 mph - N/A   Overcast
6:15 AM 35.6 °F 30.7 °F 33.8 °F 93% 30.19 in 3.0 mi East 5.8 mph - N/A   Overcast
6:35 AM 35.6 °F 30.7 °F 33.8 °F 93% 30.19 in 4.0 mi East 5.8 mph - N/A   Overcast
6:55 AM 35.6 °F 29.9 °F 33.8 °F 93% 30.19 in 4.0 mi East 6.9 mph - 0.01 in   Overcast
7:15 AM 35.6 °F 30.7 °F 33.8 °F 93% 30.19 in 3.0 mi East 5.8 mph - N/A   Overcast
7:35 AM 35.6 °F 31.7 °F 33.8 °F 93% 30.19 in 3.0 mi ENE 4.6 mph - N/A   Overcast
7:55 AM 35.6 °F 29.9 °F 33.8 °F 93% 30.19 in 3.0 mi East 6.9 mph - N/A   Overcast
8:15 AM 35.6 °F - 33.8 °F 93% 30.20 in 4.0 mi Calm Calm - N/A   Overcast
8:35 AM 35.6 °F 31.7 °F 33.8 °F 93% 30.21 in 4.0 mi East 4.6 mph - N/A   Overcast
8:55 AM 35.6 °F 32.8 °F 35.6 °F 100% 30.22 in 3.0 mi ENE 3.5 mph - N/A   Overcast
9:15 AM 35.6 °F 32.8 °F 35.6 °F 100% 30.23 in 3.0 mi East 3.5 mph - N/A   Overcast
9:35 AM 35.6 °F 31.7 °F 35.6 °F 100% 30.23 in 2.0 mi ENE 4.6 mph - N/A   Overcast
9:55 AM 35.6 °F 32.8 °F 35.6 °F 100% 30.24 in 1.5 mi ENE 3.5 mph - N/A   Overcast
10:15 AM 37.4 °F 33.8 °F 35.6 °F 93% 30.23 in 1.2 mi East 4.6 mph - N/A   Overcast
10:35 AM 37.4 °F 32.8 °F 35.6 °F 93% 30.23 in 1.8 mi ENE 5.8 mph - N/A   Overcast
10:55 AM 37.4 °F 34.9 °F 35.6 °F 93% 30.23 in 2.0 mi East 3.5 mph - N/A   Overcast
11:15 AM 37.4 °F 34.9 °F 37.4 °F 100% 30.21 in 2.0 mi East 3.5 mph - N/A   Overcast
11:35 AM 39.2 °F - 37.4 °F 93% 30.21 in 2.0 mi Calm Calm - N/A   Overcast
11:55 AM 41.0 °F 38.0 °F 37.4 °F 87% 30.18 in 1.8 mi ENE 4.6 mph - N/A   Overcast
12:15 PM 41.0 °F 38.0 °F 37.4 °F 87% 30.17 in 1.8 mi East 4.6 mph - N/A   Overcast
12:35 PM 41.0 °F 37.1 °F 39.2 °F 93% 30.16 in 1.5 mi ESE 5.8 mph - N/A   Overcast
12:55 PM 41.0 °F - 39.2 °F 93% 30.15 in 1.0 mi Calm Calm - N/A   Overcast
1:15 PM 41.0 °F - 41.0 °F 100% 30.14 in 1.0 mi Calm Calm - N/A   Overcast
1:35 PM 42.8 °F 40.1 °F 41.0 °F 93% 30.12 in 1.0 mi NE 4.6 mph - N/A   Overcast
1:55 PM 42.8 °F 41.1 °F 41.0 °F 93% 30.12 in 0.8 mi NE 3.5 mph - N/A   Overcast
2:15 PM 42.8 °F 41.1 °F 41.0 °F 93% 30.11 in 1.0 mi East 3.5 mph - N/A   Overcast
2:35 PM 42.8 °F 41.1 °F 41.0 °F 93% 30.11 in 1.2 mi ENE 3.5 mph - N/A   Overcast
2:55 PM 42.8 °F 41.1 °F 41.0 °F 93% 30.11 in 1.5 mi East 3.5 mph - N/A   Overcast
3:15 PM 42.8 °F - 41.0 °F 93% 30.11 in 1.2 mi Calm Calm - N/A   Overcast
3:35 PM 42.8 °F - 41.0 °F 93% 30.11 in 1.0 mi Calm Calm - N/A   Overcast
3:55 PM 42.8 °F - 41.0 °F 93% 30.10 in 0.8 mi Calm Calm - N/A   Overcast
4:15 PM 42.8 °F - 41.0 °F 93% 30.11 in 0.8 mi Calm Calm - N/A   Overcast
5:15 PM 42.8 °F 41.1 °F 41.0 °F 93% 30.11 in 0.2 mi ENE 3.5 mph - N/A Fog Fog
5:35 PM 42.8 °F 41.1 °F 41.0 °F 93% 30.11 in 0.5 mi East 3.5 mph - N/A Fog Fog
5:55 PM 42.8 °F - 41.0 °F 93% 30.11 in 0.5 mi Calm Calm - N/A Fog Fog
6:15 PM 42.8 °F 41.1 °F 41.0 °F 93% 30.11 in 0.5 mi ENE 3.5 mph - N/A Fog Fog
6:35 PM 42.8 °F - 41.0 °F 93% 30.11 in 0.2 mi Calm Calm - N/A Fog Fog
6:55 PM 42.8 °F - 41.0 °F 93% 30.11 in 0.5 mi Calm Calm - N/A Fog Fog
7:15 PM 42.8 °F - 41.0 °F 93% 30.11 in 0.5 mi Calm Calm - N/A Fog Fog
7:35 PM 42.8 °F 41.1 °F 41.0 °F 93% 30.10 in 0.5 mi ENE 3.5 mph - N/A Fog Fog
7:55 PM 42.8 °F 40.1 °F 41.0 °F 93% 30.10 in 0.5 mi East 4.6 mph - N/A Fog Fog
8:15 PM 42.8 °F 41.1 °F 41.0 °F 93% 30.09 in 0.8 mi East 3.5 mph - N/A   Overcast
8:35 PM 42.8 °F 40.1 °F 41.0 °F 93% 30.09 in 1.0 mi East 4.6 mph - N/A   Overcast
8:55 PM 42.8 °F 41.1 °F 41.0 °F 93% 30.09 in 1.0 mi East 3.5 mph - N/A   Overcast
9:15 PM 42.8 °F 41.1 °F 41.0 °F 93% 30.09 in 1.2 mi East 3.5 mph - N/A   Overcast
9:35 PM 42.8 °F 41.1 °F 41.0 °F 93% 30.08 in 1.5 mi East 3.5 mph - N/A   Overcast
9:55 PM 42.8 °F 41.1 °F 42.8 °F 100% 30.07 in 2.0 mi East 3.5 mph - N/A   Overcast
10:15 PM 42.8 °F 40.1 °F 42.8 °F 100% 30.06 in 2.0 mi East 4.6 mph - N/A   Overcast
10:35 PM 42.8 °F 39.3 °F 42.8 °F 100% 30.05 in 1.8 mi East 5.8 mph - N/A   Overcast
10:55 PM 44.6 °F 40.7 °F 42.8 °F 93% 30.05 in 1.5 mi East 6.9 mph - N/A   Overcast
11:15 PM 44.6 °F 42.2 °F 42.8 °F 93% 30.04 in 1.2 mi ESE 4.6 mph - N/A   Overcast
11:35 PM 44.6 °F 43.1 °F 42.8 °F 93% 30.03 in 1.0 mi East 3.5 mph - N/A   Overcast
11:55 PM 44.6 °F 43.1 °F 42.8 °F 93% 30.02 in 0.8 mi East 3.5 mph - N/A   Overcast